Year,Month,Day,Hour,Minute,Value (Times are PST for temperature in C)
2014,09,21,00,00,14.60
2014,09,21,00,01,14.60
2014,09,21,00,02,14.70
2014,09,21,00,03,14.80
2014,09,21,00,04,15.00
2014,09,21,00,05,15.10
2014,09,21,00,06,15.30
2014,09,21,00,07,15.50
2014,09,21,00,08,15.60
2014,09,21,00,09,15.80
2014,09,21,00,10,15.90
2014,09,21,00,11,16.00
2014,09,21,00,12,16.00
2014,09,21,00,13,16.00
2014,09,21,00,14,16.00
2014,09,21,00,15,16.00
2014,09,21,00,16,16.00
2014,09,21,00,17,15.90
2014,09,21,00,18,15.80
2014,09,21,00,19,15.80
2014,09,21,00,20,15.70
2014,09,21,00,21,15.60
2014,09,21,00,22,15.50
2014,09,21,00,23,15.30
2014,09,21,00,24,15.20
2014,09,21,00,25,15.20
2014,09,21,00,26,15.10
2014,09,21,00,27,15.00
2014,09,21,00,28,14.90
2014,09,21,00,29,14.90
2014,09,21,00,30,14.80
2014,09,21,00,31,14.80
2014,09,21,00,32,14.70
2014,09,21,00,33,14.70
2014,09,21,00,34,14.60
2014,09,21,00,35,14.60
2014,09,21,00,36,14.60
2014,09,21,00,37,14.50
2014,09,21,00,38,14.50
2014,09,21,00,39,14.40
2014,09,21,00,40,14.40
2014,09,21,00,41,14.40
2014,09,21,00,42,14.40
2014,09,21,00,43,14.30
2014,09,21,00,44,14.30
2014,09,21,00,45,14.30
2014,09,21,00,46,14.30
2014,09,21,00,47,14.30
2014,09,21,00,48,14.20
2014,09,21,00,49,14.20
2014,09,21,00,50,14.20
2014,09,21,00,51,14.20
2014,09,21,00,52,14.20
2014,09,21,00,53,14.10
2014,09,21,00,54,14.10
2014,09,21,00,55,14.10
2014,09,21,00,56,14.10
2014,09,21,00,57,14.10
2014,09,21,00,58,14.00
2014,09,21,00,59,14.00
2014,09,21,01,00,14.00
2014,09,21,01,01,14.00
2014,09,21,01,02,13.90
2014,09,21,01,03,13.90
2014,09,21,01,04,13.90
2014,09,21,01,05,13.90
2014,09,21,01,06,13.90
2014,09,21,01,07,13.90
2014,09,21,01,08,13.80
2014,09,21,01,09,13.80
2014,09,21,01,10,13.80
2014,09,21,01,11,13.80
2014,09,21,01,12,13.80
2014,09,21,01,13,13.80
2014,09,21,01,14,13.80
2014,09,21,01,15,13.80
2014,09,21,01,16,13.70
2014,09,21,01,17,13.70
2014,09,21,01,18,13.70
2014,09,21,01,19,13.70
2014,09,21,01,20,13.70
2014,09,21,01,21,13.70
2014,09,21,01,22,13.70
2014,09,21,01,23,13.70
2014,09,21,01,24,13.70
2014,09,21,01,25,13.70
2014,09,21,01,26,13.60
2014,09,21,01,27,13.60
2014,09,21,01,28,13.60
2014,09,21,01,29,13.60
2014,09,21,01,30,13.60
2014,09,21,01,31,13.60
2014,09,21,01,32,13.60
2014,09,21,01,33,13.50
2014,09,21,01,34,13.50
2014,09,21,01,35,13.50
2014,09,21,01,36,13.50
2014,09,21,01,37,13.50
2014,09,21,01,38,13.40
2014,09,21,01,39,13.40
2014,09,21,01,40,13.40
2014,09,21,01,41,13.40
2014,09,21,01,42,13.40
2014,09,21,01,43,13.40
2014,09,21,01,44,13.40
2014,09,21,01,45,13.40
2014,09,21,01,46,13.40
2014,09,21,01,47,13.40
2014,09,21,01,48,13.40
2014,09,21,01,49,13.40
2014,09,21,01,50,13.40
2014,09,21,01,51,13.40
2014,09,21,01,52,13.40
2014,09,21,01,53,13.50
2014,09,21,01,54,13.50
2014,09,21,01,55,13.50
2014,09,21,01,56,13.50
2014,09,21,01,57,13.60
2014,09,21,01,58,13.60
2014,09,21,01,59,13.70
2014,09,21,02,00,13.80
2014,09,21,02,01,13.80
2014,09,21,02,02,14.00
2014,09,21,02,03,14.10
2014,09,21,02,04,14.20
2014,09,21,02,05,14.40
2014,09,21,02,06,14.50
2014,09,21,02,07,14.70
2014,09,21,02,08,14.80
2014,09,21,02,09,14.90
2014,09,21,02,10,15.00
2014,09,21,02,11,15.10
2014,09,21,02,12,15.20
2014,09,21,02,13,15.30
2014,09,21,02,14,15.40
2014,09,21,02,15,15.40
2014,09,21,02,16,15.50
2014,09,21,02,17,15.60
2014,09,21,02,18,15.70
2014,09,21,02,19,15.70
2014,09,21,02,20,15.80
2014,09,21,02,21,15.70
2014,09,21,02,22,15.70
2014,09,21,02,23,15.70
2014,09,21,02,24,15.70
2014,09,21,02,25,15.70
2014,09,21,02,26,15.60
2014,09,21,02,27,15.60
2014,09,21,02,28,15.50
2014,09,21,02,29,15.50
2014,09,21,02,30,15.50
2014,09,21,02,31,15.50
2014,09,21,02,32,15.50
2014,09,21,02,33,15.50
2014,09,21,02,34,15.50
2014,09,21,02,35,15.40
2014,09,21,02,36,15.40
2014,09,21,02,37,15.30
2014,09,21,02,38,15.20
2014,09,21,02,39,15.10
2014,09,21,02,40,14.90
2014,09,21,02,41,14.80
2014,09,21,02,42,14.70
2014,09,21,02,43,14.60
2014,09,21,02,44,14.60
2014,09,21,02,45,14.50
2014,09,21,02,46,14.40
2014,09,21,02,47,14.40
2014,09,21,02,48,14.30
2014,09,21,02,49,14.30
2014,09,21,02,50,14.30
2014,09,21,02,51,14.20
2014,09,21,02,52,14.20
2014,09,21,02,53,14.10
2014,09,21,02,54,14.10
2014,09,21,02,55,14.00
2014,09,21,02,56,14.00
2014,09,21,02,57,13.90
2014,09,21,02,58,13.90
2014,09,21,02,59,13.90
2014,09,21,03,00,13.90
2014,09,21,03,01,13.80
2014,09,21,03,02,13.80
2014,09,21,03,03,13.80
2014,09,21,03,04,13.80
2014,09,21,03,05,13.80
2014,09,21,03,06,13.80
2014,09,21,03,07,13.80
2014,09,21,03,08,13.70
2014,09,21,03,09,13.70
2014,09,21,03,10,13.70
2014,09,21,03,11,13.70
2014,09,21,03,12,13.70
2014,09,21,03,13,13.70
2014,09,21,03,14,13.60
2014,09,21,03,15,13.60
2014,09,21,03,16,13.60
2014,09,21,03,17,13.60
2014,09,21,03,18,13.50
2014,09,21,03,19,13.50
2014,09,21,03,20,13.50
2014,09,21,03,21,13.50
2014,09,21,03,22,13.40
2014,09,21,03,23,13.40
2014,09,21,03,24,13.40
2014,09,21,03,25,13.40
2014,09,21,03,26,13.40
2014,09,21,03,27,13.40
2014,09,21,03,28,13.30
2014,09,21,03,29,13.30
2014,09,21,03,30,13.30
2014,09,21,03,31,13.30
2014,09,21,03,32,13.30
2014,09,21,03,33,13.30
2014,09,21,03,34,13.30
2014,09,21,03,35,13.30
2014,09,21,03,36,13.30
2014,09,21,03,37,13.30
2014,09,21,03,38,13.20
2014,09,21,03,39,13.20
2014,09,21,03,40,13.20
2014,09,21,03,41,13.20
2014,09,21,03,42,13.20
2014,09,21,03,43,13.20
2014,09,21,03,44,13.10
2014,09,21,03,45,13.10
2014,09,21,03,46,13.10
2014,09,21,03,47,13.10
2014,09,21,03,48,13.10
2014,09,21,03,49,13.10
2014,09,21,03,50,13.10
2014,09,21,03,51,13.00
2014,09,21,03,52,13.00
2014,09,21,03,53,13.00
2014,09,21,03,54,13.00
2014,09,21,03,55,13.00
2014,09,21,03,56,13.00
2014,09,21,03,57,13.00
2014,09,21,03,58,13.00
2014,09,21,03,59,13.10
2014,09,21,04,00,13.10
2014,09,21,04,01,13.10
2014,09,21,04,02,13.10
2014,09,21,04,03,13.10
2014,09,21,04,04,13.10
2014,09,21,04,05,13.00
2014,09,21,04,06,13.00
2014,09,21,04,07,13.00
2014,09,21,04,08,13.00
2014,09,21,04,09,13.00
2014,09,21,04,10,12.90
2014,09,21,04,11,12.90
2014,09,21,04,12,12.90
2014,09,21,04,13,12.90
2014,09,21,04,14,12.90
2014,09,21,04,15,12.90
2014,09,21,04,16,12.90
2014,09,21,04,17,12.90
2014,09,21,04,18,12.80
2014,09,21,04,19,12.80
2014,09,21,04,20,12.80
2014,09,21,04,21,12.80
2014,09,21,04,22,12.80
2014,09,21,04,23,12.80
2014,09,21,04,24,12.80
2014,09,21,04,25,12.80
2014,09,21,04,26,12.70
2014,09,21,04,27,12.70
2014,09,21,04,28,12.70
2014,09,21,04,29,12.70
2014,09,21,04,30,12.70
2014,09,21,04,31,12.70
2014,09,21,04,32,12.70
2014,09,21,04,33,12.70
2014,09,21,04,34,12.70
2014,09,21,04,35,12.70
2014,09,21,04,36,12.60
2014,09,21,04,37,12.60
2014,09,21,04,38,12.60
2014,09,21,04,39,12.60
2014,09,21,04,40,12.60
2014,09,21,04,41,12.60
2014,09,21,04,42,12.60
2014,09,21,04,43,12.60
2014,09,21,04,44,12.60
2014,09,21,04,45,12.60
2014,09,21,04,46,12.60
2014,09,21,04,47,12.70
2014,09,21,04,48,12.60
2014,09,21,04,49,12.70
2014,09,21,04,50,12.60
2014,09,21,04,51,12.60
2014,09,21,04,52,12.60
2014,09,21,04,53,12.60
2014,09,21,04,54,12.60
2014,09,21,04,55,12.60
2014,09,21,04,56,12.60
2014,09,21,04,57,12.60
2014,09,21,04,58,12.60
2014,09,21,04,59,12.50
2014,09,21,05,00,12.50
2014,09,21,05,01,12.50
2014,09,21,05,02,12.50
2014,09,21,05,03,12.50
2014,09,21,05,04,12.50
2014,09,21,05,05,12.50
2014,09,21,05,06,12.50
2014,09,21,05,07,12.50
2014,09,21,05,08,12.50
2014,09,21,05,09,12.50
2014,09,21,05,10,12.50
2014,09,21,05,11,12.50
2014,09,21,05,12,12.50
2014,09,21,05,13,12.50
2014,09,21,05,14,12.50
2014,09,21,05,15,12.50
2014,09,21,05,16,12.50
2014,09,21,05,17,12.50
2014,09,21,05,18,12.60
2014,09,21,05,19,12.60
2014,09,21,05,20,12.60
2014,09,21,05,21,12.60
2014,09,21,05,22,12.60
2014,09,21,05,23,12.60
2014,09,21,05,24,12.60
2014,09,21,05,25,12.60
2014,09,21,05,26,12.60
2014,09,21,05,27,12.60
2014,09,21,05,28,12.60
2014,09,21,05,29,12.60
2014,09,21,05,30,12.60
2014,09,21,05,31,12.60
2014,09,21,05,32,12.60
2014,09,21,05,33,12.60
2014,09,21,05,34,12.60
2014,09,21,05,35,12.60
2014,09,21,05,36,12.60
2014,09,21,05,37,12.60
2014,09,21,05,38,12.70
2014,09,21,05,39,12.70
2014,09,21,05,40,12.70
2014,09,21,05,41,12.70
2014,09,21,05,42,12.70
2014,09,21,05,43,12.70
2014,09,21,05,44,12.70
2014,09,21,05,45,12.80
2014,09,21,05,46,12.80
2014,09,21,05,47,12.80
2014,09,21,05,48,12.80
2014,09,21,05,49,12.80
2014,09,21,05,50,12.80
2014,09,21,05,51,12.80
2014,09,21,05,52,12.80
2014,09,21,05,53,12.80
2014,09,21,05,54,12.80
2014,09,21,05,55,12.80
2014,09,21,05,56,12.80
2014,09,21,05,57,12.80
2014,09,21,05,58,12.70
2014,09,21,05,59,12.70
2014,09,21,06,00,12.70
2014,09,21,06,01,12.70
2014,09,21,06,02,12.70
2014,09,21,06,03,12.70
2014,09,21,06,04,12.70
2014,09,21,06,05,12.70
2014,09,21,06,06,12.70
2014,09,21,06,07,12.70
2014,09,21,06,08,12.70
2014,09,21,06,09,12.60
2014,09,21,06,10,12.60
2014,09,21,06,11,12.60
2014,09,21,06,12,12.60
2014,09,21,06,13,12.60
2014,09,21,06,14,12.60
2014,09,21,06,15,12.60
2014,09,21,06,16,12.60
2014,09,21,06,17,12.60
2014,09,21,06,18,12.60
2014,09,21,06,19,12.60
2014,09,21,06,20,12.60
2014,09,21,06,21,12.60
2014,09,21,06,22,12.60
2014,09,21,06,23,12.60
2014,09,21,06,24,12.60
2014,09,21,06,25,12.50
2014,09,21,06,26,12.50
2014,09,21,06,27,12.50
2014,09,21,06,28,12.50
2014,09,21,06,29,12.50
2014,09,21,06,30,12.50
2014,09,21,06,31,12.50
2014,09,21,06,32,12.50
2014,09,21,06,33,12.50
2014,09,21,06,34,12.50
2014,09,21,06,35,12.50
2014,09,21,06,36,12.40
2014,09,21,06,37,12.40
2014,09,21,06,38,12.40
2014,09,21,06,39,12.40
2014,09,21,06,40,12.40
2014,09,21,06,41,12.40
2014,09,21,06,42,12.40
2014,09,21,06,43,12.40
2014,09,21,06,44,12.30
2014,09,21,06,45,12.30
2014,09,21,06,46,12.30
2014,09,21,06,47,12.30
2014,09,21,06,48,12.30
2014,09,21,06,49,12.30
2014,09,21,06,50,12.30
2014,09,21,06,51,12.30
2014,09,21,06,52,12.30
2014,09,21,06,53,12.30
2014,09,21,06,54,12.30
2014,09,21,06,55,12.30
2014,09,21,06,56,12.30
2014,09,21,06,57,12.30
2014,09,21,06,58,12.30
2014,09,21,06,59,12.30
2014,09,21,07,00,12.30
2014,09,21,07,01,12.40
2014,09,21,07,02,12.30
2014,09,21,07,03,12.30
2014,09,21,07,04,12.30
2014,09,21,07,05,12.30
2014,09,21,07,06,12.30
2014,09,21,07,07,12.30
2014,09,21,07,08,12.30
2014,09,21,07,09,12.30
2014,09,21,07,10,12.30
2014,09,21,07,11,12.30
2014,09,21,07,12,12.30
2014,09,21,07,13,12.30
2014,09,21,07,14,12.30
2014,09,21,07,15,12.30
2014,09,21,07,16,12.30
2014,09,21,07,17,12.30
2014,09,21,07,18,12.30
2014,09,21,07,19,12.30
2014,09,21,07,20,12.30
2014,09,21,07,21,12.30
2014,09,21,07,22,12.30
2014,09,21,07,23,12.30
2014,09,21,07,24,12.30
2014,09,21,07,25,12.30
2014,09,21,07,26,12.30
2014,09,21,07,27,12.30
2014,09,21,07,28,12.40
2014,09,21,07,29,12.40
2014,09,21,07,30,12.40
2014,09,21,07,31,12.40
2014,09,21,07,32,12.40
2014,09,21,07,33,12.40
2014,09,21,07,34,12.50
2014,09,21,07,35,12.50
2014,09,21,07,36,12.50
2014,09,21,07,37,12.60
2014,09,21,07,38,12.60
2014,09,21,07,39,12.60
2014,09,21,07,40,12.60
2014,09,21,07,41,12.60
2014,09,21,07,42,12.70
2014,09,21,07,43,12.70
2014,09,21,07,44,12.70
2014,09,21,07,45,12.80
2014,09,21,07,46,12.80
2014,09,21,07,47,12.80
2014,09,21,07,48,12.90
2014,09,21,07,49,12.90
2014,09,21,07,50,13.00
2014,09,21,07,51,13.00
2014,09,21,07,52,13.10
2014,09,21,07,53,13.10
2014,09,21,07,54,13.10
2014,09,21,07,55,13.10
2014,09,21,07,56,13.10
2014,09,21,07,57,13.20
2014,09,21,07,58,13.20
2014,09,21,07,59,13.20
2014,09,21,08,00,13.30
2014,09,21,08,01,13.30
2014,09,21,08,02,13.40
2014,09,21,08,03,13.40
2014,09,21,08,04,13.50
2014,09,21,08,05,13.50
2014,09,21,08,06,13.60
2014,09,21,08,07,13.70
2014,09,21,08,08,13.70
2014,09,21,08,09,13.80
2014,09,21,08,10,13.90
2014,09,21,08,11,13.90
2014,09,21,08,12,14.00
2014,09,21,08,13,14.10
2014,09,21,08,14,14.20
2014,09,21,08,15,14.30
2014,09,21,08,16,14.30
2014,09,21,08,17,14.40
2014,09,21,08,18,14.50
2014,09,21,08,19,14.50
2014,09,21,08,20,14.60
2014,09,21,08,21,14.60
2014,09,21,08,22,14.60
2014,09,21,08,23,14.70
2014,09,21,08,24,14.70
2014,09,21,08,25,14.70
2014,09,21,08,26,14.70
2014,09,21,08,27,14.80
2014,09,21,08,28,14.80
2014,09,21,08,29,14.90
2014,09,21,08,30,14.90
2014,09,21,08,31,15.00
2014,09,21,08,32,15.10
2014,09,21,08,33,15.20
2014,09,21,08,34,15.20
2014,09,21,08,35,15.30
2014,09,21,08,36,15.40
2014,09,21,08,37,15.50
2014,09,21,08,38,15.50
2014,09,21,08,39,15.60
2014,09,21,08,40,15.70
2014,09,21,08,41,15.70
2014,09,21,08,42,15.80
2014,09,21,08,43,15.80
2014,09,21,08,44,15.90
2014,09,21,08,45,16.00
2014,09,21,08,46,16.00
2014,09,21,08,47,16.10
2014,09,21,08,48,16.20
2014,09,21,08,49,16.30
2014,09,21,08,50,16.30
2014,09,21,08,51,16.40
2014,09,21,08,52,16.50
2014,09,21,08,53,16.60
2014,09,21,08,54,16.70
2014,09,21,08,55,16.80
2014,09,21,08,56,16.90
2014,09,21,08,57,17.00
2014,09,21,08,58,17.10
2014,09,21,08,59,17.20
2014,09,21,09,00,17.30
2014,09,21,09,01,17.40
2014,09,21,09,02,17.50
2014,09,21,09,03,17.60
2014,09,21,09,04,17.70
2014,09,21,09,05,17.80
2014,09,21,09,06,17.90
2014,09,21,09,07,18.00
2014,09,21,09,08,18.00
2014,09,21,09,09,18.10
2014,09,21,09,10,18.20
2014,09,21,09,11,18.30
2014,09,21,09,12,18.40
2014,09,21,09,13,18.40
2014,09,21,09,14,18.50
2014,09,21,09,15,18.60
2014,09,21,09,16,18.70
2014,09,21,09,17,18.70
2014,09,21,09,18,18.80
2014,09,21,09,19,18.80
2014,09,21,09,20,18.90
2014,09,21,09,21,18.90
2014,09,21,09,22,19.00
2014,09,21,09,23,19.00
2014,09,21,09,24,19.10
2014,09,21,09,25,19.20
2014,09,21,09,26,19.20
2014,09,21,09,27,19.30
2014,09,21,09,28,19.30
2014,09,21,09,29,19.40
2014,09,21,09,30,19.40
2014,09,21,09,31,19.50
2014,09,21,09,32,19.50
2014,09,21,09,33,19.60
2014,09,21,09,34,19.60
2014,09,21,09,35,19.70
2014,09,21,09,36,19.80
2014,09,21,09,37,19.80
2014,09,21,09,38,19.90
2014,09,21,09,39,20.00
2014,09,21,09,40,20.10
2014,09,21,09,41,20.10
2014,09,21,09,42,20.20
2014,09,21,09,43,20.30
2014,09,21,09,44,20.30
2014,09,21,09,45,20.40
2014,09,21,09,46,20.50
2014,09,21,09,47,20.60
2014,09,21,09,48,20.70
2014,09,21,09,49,20.80
2014,09,21,09,50,20.90
2014,09,21,09,51,21.00
2014,09,21,09,52,21.00
2014,09,21,09,53,21.10
2014,09,21,09,54,21.10
2014,09,21,09,55,21.20
2014,09,21,09,56,21.20
2014,09,21,09,57,21.20
2014,09,21,09,58,21.10
2014,09,21,09,59,21.10
2014,09,21,10,00,21.10
2014,09,21,10,01,21.10
2014,09,21,10,02,21.20
2014,09,21,10,03,21.20
2014,09,21,10,04,21.20
2014,09,21,10,05,21.30
2014,09,21,10,06,21.40
2014,09,21,10,07,21.50
2014,09,21,10,08,21.50
2014,09,21,10,09,21.60
2014,09,21,10,10,21.70
2014,09,21,10,11,21.80
2014,09,21,10,12,21.80
2014,09,21,10,13,21.90
2014,09,21,10,14,21.90
2014,09,21,10,15,22.00
2014,09,21,10,16,22.10
2014,09,21,10,17,22.20
2014,09,21,10,18,22.20
2014,09,21,10,19,22.30
2014,09,21,10,20,22.40
2014,09,21,10,21,22.40
2014,09,21,10,22,22.40
2014,09,21,10,23,22.50
2014,09,21,10,24,22.50
2014,09,21,10,25,22.60
2014,09,21,10,26,22.60
2014,09,21,10,27,22.60
2014,09,21,10,28,22.60
2014,09,21,10,29,22.60
2014,09,21,10,30,22.60
2014,09,21,10,31,22.70
2014,09,21,10,32,22.70
2014,09,21,10,33,22.80
2014,09,21,10,34,22.80
2014,09,21,10,35,22.90
2014,09,21,10,36,22.90
2014,09,21,10,37,23.00
2014,09,21,10,38,23.00
2014,09,21,10,39,23.10
2014,09,21,10,40,23.10
2014,09,21,10,41,23.10
2014,09,21,10,42,23.10
2014,09,21,10,43,23.10
2014,09,21,10,44,23.10
2014,09,21,10,45,23.00
2014,09,21,10,46,23.00
2014,09,21,10,47,23.10
2014,09,21,10,48,23.10
2014,09,21,10,49,23.10
2014,09,21,10,50,23.10
2014,09,21,10,51,23.10
2014,09,21,10,52,23.20
2014,09,21,10,53,23.20
2014,09,21,10,54,23.20
2014,09,21,10,55,23.20
2014,09,21,10,56,23.30
2014,09,21,10,57,23.40
2014,09,21,10,58,23.40
2014,09,21,10,59,23.50
2014,09,21,11,00,23.40
2014,09,21,11,01,23.40
2014,09,21,11,02,23.30
2014,09,21,11,03,23.30
2014,09,21,11,04,23.20
2014,09,21,11,05,23.20
2014,09,21,11,06,23.20
2014,09,21,11,07,23.20
2014,09,21,11,08,23.20
2014,09,21,11,09,23.20
2014,09,21,11,10,23.20
2014,09,21,11,11,23.20
2014,09,21,11,12,23.20
2014,09,21,11,13,23.20
2014,09,21,11,14,23.20
2014,09,21,11,15,23.20
2014,09,21,11,16,23.20
2014,09,21,11,17,23.20
2014,09,21,11,18,23.20
2014,09,21,11,19,23.30
2014,09,21,11,20,23.30
2014,09,21,11,21,23.40
2014,09,21,11,22,23.40
2014,09,21,11,23,23.50
2014,09,21,11,24,23.50
2014,09,21,11,25,23.50
2014,09,21,11,26,23.50
2014,09,21,11,27,23.40
2014,09,21,11,28,23.40
2014,09,21,11,29,23.40
2014,09,21,11,30,23.40
2014,09,21,11,31,23.30
2014,09,21,11,32,23.30
2014,09,21,11,33,23.30
2014,09,21,11,34,23.30
2014,09,21,11,35,23.40
2014,09,21,11,36,23.40
2014,09,21,11,37,23.50
2014,09,21,11,38,23.60
2014,09,21,11,39,23.70
2014,09,21,11,40,23.70
2014,09,21,11,41,23.70
2014,09,21,11,42,23.70
2014,09,21,11,43,23.70
2014,09,21,11,44,23.70
2014,09,21,11,45,23.70
2014,09,21,11,46,23.70
2014,09,21,11,47,23.60
2014,09,21,11,48,23.60
2014,09,21,11,49,23.60
2014,09,21,11,50,23.50
2014,09,21,11,51,23.50
2014,09,21,11,52,23.50
2014,09,21,11,53,23.50
2014,09,21,11,54,23.50
2014,09,21,11,55,23.50
2014,09,21,11,56,23.50
2014,09,21,11,57,23.40
2014,09,21,11,58,23.20
2014,09,21,11,59,23.10
2014,09,21,12,00,22.90
2014,09,21,12,01,22.90
2014,09,21,12,02,22.80
2014,09,21,12,03,22.80
2014,09,21,12,04,22.80
2014,09,21,12,05,22.80
2014,09,21,12,06,22.80
2014,09,21,12,07,22.80
2014,09,21,12,08,22.80
2014,09,21,12,09,22.90
2014,09,21,12,10,23.00
2014,09,21,12,11,23.00
2014,09,21,12,12,23.10
2014,09,21,12,13,23.10
2014,09,21,12,14,23.10
2014,09,21,12,15,23.10
2014,09,21,12,16,23.10
2014,09,21,12,17,23.10
2014,09,21,12,18,23.20
2014,09,21,12,19,23.20
2014,09,21,12,20,23.20
2014,09,21,12,21,23.20
2014,09,21,12,22,23.30
2014,09,21,12,23,23.40
2014,09,21,12,24,23.50
2014,09,21,12,25,23.60
2014,09,21,12,26,23.60
2014,09,21,12,27,23.70
2014,09,21,12,28,23.70
2014,09,21,12,29,23.70
2014,09,21,12,30,23.80
2014,09,21,12,31,23.90
2014,09,21,12,32,23.90
2014,09,21,12,33,24.00
2014,09,21,12,34,24.00
2014,09,21,12,35,24.10
2014,09,21,12,36,24.00
2014,09,21,12,37,24.00
2014,09,21,12,38,23.90
2014,09,21,12,39,23.80
2014,09,21,12,40,23.80
2014,09,21,12,41,23.70
2014,09,21,12,42,23.60
2014,09,21,12,43,23.50
2014,09,21,12,44,23.50
2014,09,21,12,45,23.40
2014,09,21,12,46,23.30
2014,09,21,12,47,23.30
2014,09,21,12,48,23.30
2014,09,21,12,49,23.30
2014,09,21,12,50,23.30
2014,09,21,12,51,23.40
2014,09,21,12,52,23.40
2014,09,21,12,53,23.50
2014,09,21,12,54,23.50
2014,09,21,12,55,23.60
2014,09,21,12,56,23.50
2014,09,21,12,57,23.40
2014,09,21,12,58,23.40
2014,09,21,12,59,23.30
2014,09,21,13,00,23.20
2014,09,21,13,01,23.10
2014,09,21,13,02,23.00
2014,09,21,13,03,23.00
2014,09,21,13,04,22.90
2014,09,21,13,05,22.90
2014,09,21,13,06,22.80
2014,09,21,13,07,22.80
2014,09,21,13,08,22.80
2014,09,21,13,09,22.80
2014,09,21,13,10,22.80
2014,09,21,13,11,22.70
2014,09,21,13,12,22.70
2014,09,21,13,13,22.70
2014,09,21,13,14,22.70
2014,09,21,13,15,22.70
2014,09,21,13,16,22.70
2014,09,21,13,17,22.70
2014,09,21,13,18,22.80
2014,09,21,13,19,22.80
2014,09,21,13,20,22.80
2014,09,21,13,21,22.90
2014,09,21,13,22,23.00
2014,09,21,13,23,23.10
2014,09,21,13,24,23.30
2014,09,21,13,25,23.40
2014,09,21,13,26,23.40
2014,09,21,13,27,23.40
2014,09,21,13,28,23.40
2014,09,21,13,29,23.40
2014,09,21,13,30,23.30
2014,09,21,13,31,23.30
2014,09,21,13,32,23.20
2014,09,21,13,33,23.20
2014,09,21,13,34,23.10
2014,09,21,13,35,23.10
2014,09,21,13,36,23.10
2014,09,21,13,37,23.00
2014,09,21,13,38,23.00
2014,09,21,13,39,22.90
2014,09,21,13,40,23.00
2014,09,21,13,41,23.00
2014,09,21,13,42,23.10
2014,09,21,13,43,23.10
2014,09,21,13,44,23.20
2014,09,21,13,45,23.20
2014,09,21,13,46,23.20
2014,09,21,13,47,23.20
2014,09,21,13,48,23.20
2014,09,21,13,49,23.20
2014,09,21,13,50,23.30
2014,09,21,13,51,23.30
2014,09,21,13,52,23.30
2014,09,21,13,53,23.40
2014,09,21,13,54,23.40
2014,09,21,13,55,23.40
2014,09,21,13,56,23.50
2014,09,21,13,57,23.60
2014,09,21,13,58,23.60
2014,09,21,13,59,23.60
2014,09,21,14,00,23.60
2014,09,21,14,01,23.60
2014,09,21,14,02,23.60
2014,09,21,14,03,23.70
2014,09,21,14,04,23.70
2014,09,21,14,05,23.70
2014,09,21,14,06,23.70
2014,09,21,14,07,23.80
2014,09,21,14,08,23.80
2014,09,21,14,09,23.90
2014,09,21,14,10,24.00
2014,09,21,14,11,24.10
2014,09,21,14,12,24.20
2014,09,21,14,13,24.30
2014,09,21,14,14,24.40
2014,09,21,14,15,24.50
2014,09,21,14,16,24.50
2014,09,21,14,17,24.50
2014,09,21,14,18,24.60
2014,09,21,14,19,24.60
2014,09,21,14,20,24.70
2014,09,21,14,21,24.80
2014,09,21,14,22,24.80
2014,09,21,14,23,24.90
2014,09,21,14,24,25.00
2014,09,21,14,25,25.00
2014,09,21,14,26,25.10
2014,09,21,14,27,25.10
2014,09,21,14,28,25.10
2014,09,21,14,29,25.10
2014,09,21,14,30,25.10
2014,09,21,14,31,25.10
2014,09,21,14,32,25.10
2014,09,21,14,33,25.10
2014,09,21,14,34,25.10
2014,09,21,14,35,25.10
2014,09,21,14,36,25.20
2014,09,21,14,37,25.20
2014,09,21,14,38,25.30
2014,09,21,14,39,25.30
2014,09,21,14,40,25.30
2014,09,21,14,41,25.20
2014,09,21,14,42,25.20
2014,09,21,14,43,25.10
2014,09,21,14,44,25.10
2014,09,21,14,45,25.10
2014,09,21,14,46,25.20
2014,09,21,14,47,25.20
2014,09,21,14,48,25.30
2014,09,21,14,49,25.40
2014,09,21,14,50,25.50
2014,09,21,14,51,25.50
2014,09,21,14,52,25.60
2014,09,21,14,53,25.60
2014,09,21,14,54,25.50
2014,09,21,14,55,25.50
2014,09,21,14,56,25.50
2014,09,21,14,57,25.60
2014,09,21,14,58,25.60
2014,09,21,14,59,25.60
2014,09,21,15,00,25.60
2014,09,21,15,01,25.60
2014,09,21,15,02,25.70
2014,09,21,15,03,25.70
2014,09,21,15,04,25.80
2014,09,21,15,05,25.80
2014,09,21,15,06,25.80
2014,09,21,15,07,25.80
2014,09,21,15,08,25.90
2014,09,21,15,09,25.90
2014,09,21,15,10,26.00
2014,09,21,15,11,26.00
2014,09,21,15,12,26.00
2014,09,21,15,13,26.00
2014,09,21,15,14,26.00
2014,09,21,15,15,26.00
2014,09,21,15,16,26.00
2014,09,21,15,17,26.00
2014,09,21,15,18,25.90
2014,09,21,15,19,25.90
2014,09,21,15,20,25.90
2014,09,21,15,21,25.90
2014,09,21,15,22,25.80
2014,09,21,15,23,25.80
2014,09,21,15,24,25.80
2014,09,21,15,25,25.80
2014,09,21,15,26,25.90
2014,09,21,15,27,25.90
2014,09,21,15,28,25.90
2014,09,21,15,29,25.80
2014,09,21,15,30,25.80
2014,09,21,15,31,25.90
2014,09,21,15,32,25.90
2014,09,21,15,33,25.90
2014,09,21,15,34,25.90
2014,09,21,15,35,26.00
2014,09,21,15,36,26.00
2014,09,21,15,37,26.10
2014,09,21,15,38,26.10
2014,09,21,15,39,26.20
2014,09,21,15,40,26.20
2014,09,21,15,41,26.30
2014,09,21,15,42,26.30
2014,09,21,15,43,26.30
2014,09,21,15,44,26.30
2014,09,21,15,45,26.30
2014,09,21,15,46,26.20
2014,09,21,15,47,26.20
2014,09,21,15,48,26.20
2014,09,21,15,49,26.30
2014,09,21,15,50,26.30
2014,09,21,15,51,26.40
2014,09,21,15,52,26.50
2014,09,21,15,53,26.50
2014,09,21,15,54,26.60
2014,09,21,15,55,26.70
2014,09,21,15,56,26.70
2014,09,21,15,57,26.70
2014,09,21,15,58,26.70
2014,09,21,15,59,26.70
2014,09,21,16,00,26.60
2014,09,21,16,01,26.60
2014,09,21,16,02,26.60
2014,09,21,16,03,26.70
2014,09,21,16,04,26.70
2014,09,21,16,05,26.70
2014,09,21,16,06,26.70
2014,09,21,16,07,26.70
2014,09,21,16,08,26.70
2014,09,21,16,09,26.70
2014,09,21,16,10,26.70
2014,09,21,16,11,26.70
2014,09,21,16,12,26.60
2014,09,21,16,13,26.60
2014,09,21,16,14,26.60
2014,09,21,16,15,26.60
2014,09,21,16,16,26.60
2014,09,21,16,17,26.50
2014,09,21,16,18,26.40
2014,09,21,16,19,26.40
2014,09,21,16,20,26.30
2014,09,21,16,21,26.20
2014,09,21,16,22,26.10
2014,09,21,16,23,26.00
2014,09,21,16,24,26.00
2014,09,21,16,25,26.00
2014,09,21,16,26,26.00
2014,09,21,16,27,26.00
2014,09,21,16,28,26.10
2014,09,21,16,29,26.10
2014,09,21,16,30,26.00
2014,09,21,16,31,26.00
2014,09,21,16,32,25.90
2014,09,21,16,33,25.90
2014,09,21,16,34,25.90
2014,09,21,16,35,25.90
2014,09,21,16,36,25.90
2014,09,21,16,37,25.90
2014,09,21,16,38,26.00
2014,09,21,16,39,26.00
2014,09,21,16,40,26.10
2014,09,21,16,41,26.10
2014,09,21,16,42,26.10
2014,09,21,16,43,26.10
2014,09,21,16,44,26.10
2014,09,21,16,45,26.10
2014,09,21,16,46,26.10
2014,09,21,16,47,26.00
2014,09,21,16,48,26.00
2014,09,21,16,49,25.90
2014,09,21,16,50,25.90
2014,09,21,16,51,25.80
2014,09,21,16,52,25.80
2014,09,21,16,53,25.80
2014,09,21,16,54,25.70
2014,09,21,16,55,25.70
2014,09,21,16,56,25.70
2014,09,21,16,57,25.60
2014,09,21,16,58,25.60
2014,09,21,16,59,25.70
2014,09,21,17,00,25.70
2014,09,21,17,01,25.70
2014,09,21,17,02,25.70
2014,09,21,17,03,25.60
2014,09,21,17,04,25.60
2014,09,21,17,05,25.60
2014,09,21,17,06,25.60
2014,09,21,17,07,25.50
2014,09,21,17,08,25.40
2014,09,21,17,09,25.40
2014,09,21,17,10,25.30
2014,09,21,17,11,25.20
2014,09,21,17,12,25.10
2014,09,21,17,13,25.10
2014,09,21,17,14,25.00
2014,09,21,17,15,25.00
2014,09,21,17,16,24.90
2014,09,21,17,17,24.90
2014,09,21,17,18,24.90
2014,09,21,17,19,24.90